Weather in Saksahanske

Ukraine / Dnipropetrovsk Region     48°22′55″N   34°09′17″E
temp.,
°C
wind,
m/s
gust,
m/s
humid.,
%
clouds,
%
prec.,
mm/h
press.,
hPa
HPBL,
m
19 september, sun
sun1900:00+18ssw7126594 0.2 1008663
03:00+15ssw3891100 11.0 1008350
06:00+16wsw249348 0.1 1007184
09:00+17wnw3475100 0.1 1008436
12:00+22w45505 0.0 10071437
15:00+22wsw5642100 0.0 10061875
18:00+20wsw2351100 0.1 100675
21:00+19wsw5951100 0.1 1007386
20 september, mon
mon2000:00+15w477559 0.3 1007281
03:00+11w688211 0.3 1008563
06:00+8wsw497625 0.0 1009702
09:00+11wsw796598 0.0 10101169
12:00+11wsw5863100 0.0 10111312
15:00+13wsw7959100 0.0 10111436
18:00+12w6859100 0.0 10121449
21:00+11w5869100 0.0 1013923
21 september, tue
tue2100:00+8wsw488266 0.0 1014251
03:00+9w587888 0.0 1014446
06:00+9w4782100 0.0 1014490
09:00+10wnw567580 0.0 1015665
12:00+10wnw5665100 0.0 1016817
15:00+10wnw7852100 0.0 10161108
18:00+9wnw5754100 0.0 10171198
21:00+7wnw5880100 0.0 1018608
22 september, wed
wed2200:00+7wnw5880100 0.0 1018749
03:00+7wnw5871100 0.1 1018577
06:00+7w4665100 0.0 1018690
09:00+8w4564100 0.0 1018661
12:00+9w4460100 0.0 10181154
15:00+10w3454100 0.1 10171205
18:00+9wnw2357100 0.1 1017790
21:00+8nw1166100 0.1 101754
23 september, thu
thu2300:00+7w1171100 0.0 101616
03:00+7nw1173100 0.0 101549
06:00+6wnw017878 0.0 101513
09:00+8nne1069100 0.0 1015403
12:00+9ene116382 0.0 1014856
15:00+10nnw3260100 0.1 1013977
18:00+9nw346793 0.0 1014607
21:00+7nw3675100 0.0 1014253